Miscellaneous Local Product
Issued by NWS North Platte, NE

Home | Current Version | Previous Version | Text Only | Print | Product List | Glossary On
Versions: 1 2 3 4 5 6 7 8 9 10 11 12 13 14 15 16 17 18 19 20 21 22 23 24 25 26 27 28 29 30 31 32 33 34 35 36 37 38 39 40 41 42 43 44 45 46 47 48 49 50
477
AXUS43 KLBF 240110
MISLBF


WESTERN AND NORTH CENTRAL NEBRASKA HOURLY WEATHER ROUNDUP
NATIONAL WEATHER SERVICE NORTH PLATTE NE
800 PM CDT WED AUG 23 2017

NOTE: "FAIR" INDICATES FEW OR NO CLOUDS BELOW 12,000 FEET WITH NO
SIGNIFICANT WEATHER AND/OR OBSTRUCTIONS TO VISIBILITY.

NOTE: STATIONS NOT REPORTING VARIABLES SUCH AS SKY/WEATHER OR
PRESSURE ARE PROVIDED BY RAWS AND APRS NETWORKS AND ARE NOT UNDER
NATIONAL WEATHER SERVICE QUALITY CONTROL.

...OBSERVATIONS IN AND NEAR THE EASTERN PANHANDLE OF NEBRASKA...

CITY           SKY/WX    TMP DP  RH WIND       PRES   REMARKS
PINE RIDGE     CLOUDY    85  57  38 E8        29.93F
GORDON         FAIR      82  58  43 CALM      29.96S
CHADRON        PTCLDY    85  56  37 S10       29.91F
ALLIANCE       PTCLDY    78  51  38 NW14G29   30.01R
SIDNEY         PTCLDY    82  60  47 S8        30.04R
$$

...OBSERVATIONS IN NORTHERN NEBRASKA AND FAR SOUTHERN SOUTH DAKOTA...

CITY           SKY/WX    TMP DP  RH WIND       PRES   REMARKS
WINNER         FAIR      83  66  56 S10       29.88F
VALENTINE      PTCLDY    86  58  38 S15       29.91S
THEDFORD       CLEAR     81  59  48 S10       29.99R
AINSWORTH      CLEAR     78  60  54 S10       29.95S
O`NEILL        CLEAR     75  59  57 S10       29.97S
ORD            CLEAR     74  55  51 S8        29.98F
BROKEN BOW     CLEAR     78  52  40 S12       30.00S
VALENTINE NWR    N/A     83  61  46 S13         N/A
HALSEY           N/A     82  56  41 S8G17       N/A
BUTTE            N/A     75  60  60 S10         N/A
CHAMBERS         N/A     77  55  45 S3          N/A
EWING            N/A     73  59  62 S6          N/A
$$

...OBSERVATIONS IN SOUTHWEST NEBRASKA AND FAR NORTHEAST COLORADO...

CITY           SKY/WX    TMP DP  RH WIND       PRES   REMARKS
WRAY           FAIR      81  54  39 S7        30.00S
HOLYOKE        FAIR      79  63  57 S10       30.00S
IMPERIAL       CLEAR     81  59  47 SE12      29.98F
OGALLALA       CLOUDY    81  63  55 SE7       29.99S
NORTH PLATTE   CLEAR     78  58  49 SE7       29.99S
MCCOOK         CLEAR     79  53  40 SE8       30.00S
LEXINGTON      CLEAR     74  55  50 SE7       30.01R
STAPLETON        N/A     77  58  52 CALM        N/A
GOTHENBURG       N/A     80  48  32 S6          N/A
CALLAWAY         N/A     78  59  52 S12         N/A
$$

...OBSERVATIONS IN CENTRAL LINCOLN COUNTY AREA...

CITY           SKY/WX    TMP DP  RH WIND       PRES   REMARKS
N.P. AIRPORT   CLEAR     78  58  49 SE7       29.99S
N.P. DOWNTOWN    N/A     80  60  50 CALM        N/A
N.P. SOUTHEAST   N/A     78  59  52 SE3         N/A
N.P. HILLCREST   N/A     78  60  53 S8          N/A
$$

...SOME OBSERVATIONS FROM AROUND THE REGION...

CITY           SKY/WX    TMP DP  RH WIND       PRES   REMARKS
DENVER         LGT RAIN  77  44  30 W24G32    30.15R
LIMON          CLOUDY    76  56  49 S7        30.12F
ASPEN          CLOUDY    71  39  31 NW8       30.27F
LARAMIE        CLOUDY    61  47  59 SW22      30.28S
CASPER         CLEAR     84  29  13 W7        30.04F
CHEYENNE       CLOUDY    73  44  35 NW3       30.18S
SCOTTSBLUFF    CLOUDY    79  48  33 SW12      30.02R
GRAND ISLAND   CLEAR     73  59  61 SE8       30.01F
OMAHA          CLEAR     76  55  48 S9        30.03S
SIOUX FALLS    MOCLDY    73  62  68 SE9       30.00S THUNDER
PIERRE         CLEAR     80  64  58 NE8       29.87S
RAPID CITY     CLOUDY    84  52  33 NE6       29.94F
BISMARCK       CLEAR     76  61  59 SE6       29.94S
KANSAS CITY    CLEAR     72  56  57 NE6       30.06S
HILL CITY      CLEAR     80  46  30 SE9       30.01S
WICHITA        PTCLDY    77  51  40 E10       30.02S
DODGE CITY     CLEAR     80  48  32 S10       30.04S
OKLAHOMA CITY  PTCLDY    79  63  57 NE10      29.99S
DALLAS         MOCLDY    85  69  58 E10       29.91R
AMARILLO       CLEAR     76  63  64 SE8       30.09S
$$




USA.gov is the U.S. government's official web portal to all federal, state and local government web resources and services.